Albuquerque Double Eagle, NM

6:27 AM MDT on May 28, 2017 (GMT -0600)
Double Eagle Ii

Weather History for KAEG - May, 2013

Change the Weather History Date:

Thursday, May 23, 2013

  Actual Average (KABQ) Record (KABQ)
Temperature  
Mean Temperature 70 °F -  
Max Temperature 89 °F 82 °F 97 °F (2000)
Min Temperature 51 °F 50 °F 36 °F (1975)
Cooling Degree Days 5    
Growing Degree Days 20 (Base 50)    
Moisture  
Dew Point 9 °F    
Average Humidity 11    
Maximum Humidity 18    
Minimum Humidity 5    
Precipitation  
Precipitation 0.00 in - - ()
Sea Level Pressure  
Sea Level Pressure 30.01 in    
Wind  
Wind Speed 10 mph (West)    
Max Wind Speed 31 mph    
Max Gust Speed 29 mph    
Visibility 10 miles    
Events      
Averages and records for this station are not official NWS values.
T = Trace of Precipitation, MM = Missing Value Source: NWS Daily Summary

Daily Weather History Graph

Daily Weather History Graph

Search for Another Location

Airport or City:

Trip Planner

Search our weather history database for the weather conditions in past years. The results will help you decide how hot, cold, wet, or windy it might be!

Date:

Astronomy

May. 23, 2013 Rise Set
Actual Time 5:57 AM MDT 8:10 PM MDT
Civil Twilight 5:29 AM MDT 8:39 PM MDT
Nautical Twilight 4:53 AM MDT 9:14 PM MDT
Astronomical Twilight 4:15 AM MDT 9:52 PM MDT
Moon 6:48 PM MDT (5/23) 4:41 AM MDT (5/23)
Length of Visible Light 15h 10m
Length of Day
14h 12m
Waxing Gibbous, 97% of the Moon is Illuminated
May 23
Waxing Gibbous
May 24
Full
May 31
Last Quarter
Jun 8
New
Jun 16
First Quarter

Hourly Weather History & Observations

Time (MDT) Temp. Dew Point Humidity Pressure Visibility Wind Dir Wind Speed Gust Speed Precip Events Conditions
12:15 AM 62.6 °F 6.8 °F 11% 29.97 in 10.0 mi West 12.7 mph - N/A   Clear
12:35 AM 62.6 °F 6.8 °F 11% 29.97 in 10.0 mi West 12.7 mph - N/A   Clear
12:55 AM 62.6 °F 8.6 °F 12% 29.97 in 10.0 mi WNW 12.7 mph - N/A   Clear
1:15 AM 62.6 °F 8.6 °F 12% 29.97 in 10.0 mi WNW 12.7 mph - N/A   Clear
1:35 AM 59.0 °F 8.6 °F 14% 29.97 in 10.0 mi West 10.4 mph - N/A   Clear
1:55 AM 59.0 °F 10.4 °F 15% 29.97 in 10.0 mi West 10.4 mph - N/A   Clear
2:15 AM 57.2 °F 8.6 °F 14% 29.98 in 10.0 mi NE 9.2 mph - N/A   Clear
2:35 AM 60.8 °F 10.4 °F 14% 29.99 in 10.0 mi East 4.6 mph - N/A   Clear
2:55 AM 64.4 °F 10.4 °F 12% 30.00 in 10.0 mi SSW 3.5 mph - N/A   Clear
3:15 AM 62.6 °F 10.4 °F 13% 30.00 in 10.0 mi West 3.5 mph - N/A   Clear
3:35 AM 60.8 °F 10.4 °F 14% 30.01 in 10.0 mi Calm Calm - N/A   Clear
3:55 AM 55.4 °F 8.6 °F 15% 30.01 in 10.0 mi NNW 5.8 mph - N/A   Clear
4:15 AM 55.4 °F 8.6 °F 15% 30.01 in 10.0 mi NNW 6.9 mph - N/A   Clear
4:35 AM 57.2 °F 8.6 °F 14% 30.01 in 10.0 mi NNW 3.5 mph - N/A   Clear
4:55 AM 53.6 °F 8.6 °F 16% 30.02 in 10.0 mi NW 4.6 mph - N/A   Clear
5:15 AM 51.8 °F 8.6 °F 18% 30.02 in 10.0 mi NW 5.8 mph - N/A   Clear
5:35 AM 53.6 °F 8.6 °F 16% 30.03 in 10.0 mi NW 4.6 mph - N/A   Clear
5:50 AM 51.8 °F 8.6 °F 18% 30.03 in 10.0 mi Calm Calm - N/A   Scattered Clouds
6:50 AM 57.2 °F 10.4 °F 16% 30.05 in 10.0 mi West 4.6 mph - N/A   Scattered Clouds
7:50 AM 66.2 °F 12.2 °F 12% 30.05 in 10.0 mi WNW 3.5 mph - N/A   Scattered Clouds
8:50 AM 71.6 °F 14.0 °F 11% 30.08 in 10.0 mi NW 5.8 mph - N/A   Scattered Clouds
9:50 AM 73.4 °F 15.8 °F 11% 30.08 in 10.0 mi Variable 5.8 mph - N/A   Partly Cloudy
10:50 AM 75.2 °F 15.8 °F 11% 30.07 in 10.0 mi SSE 6.9 mph - N/A   Partly Cloudy
11:50 AM 80.6 °F 15.8 °F 9% 30.07 in 10.0 mi SSW 6.9 mph - N/A   Partly Cloudy
12:50 PM 84.2 °F 12.2 °F 7% 30.04 in 10.0 mi SSE 23.0 mph - N/A   Partly Cloudy
1:50 PM 84.2 °F 12.2 °F 7% 30.03 in 10.0 mi South 19.6 mph - N/A   Partly Cloudy
2:50 PM 86.0 °F 8.6 °F 5% 30.00 in 10.0 mi South 12.7 mph 28.8 mph N/A   Scattered Clouds
3:50 PM 87.8 °F 10.4 °F 6% 29.97 in 10.0 mi SSE 17.3 mph 28.8 mph N/A   Scattered Clouds
4:50 PM 89.6 °F 10.4 °F 5% 29.94 in 10.0 mi South 31.1 mph - N/A   Scattered Clouds
5:50 PM 84.2 °F 10.4 °F 6% 29.93 in 10.0 mi SSE 21.9 mph 26.5 mph N/A   Scattered Clouds
10:15 PM 66.2 °F -4.0 °F 6% 30.00 in 10.0 mi West 15.0 mph - N/A   Clear
10:35 PM 66.2 °F -2.2 °F 6% 30.01 in 10.0 mi West 12.7 mph - N/A   Clear
10:55 PM 64.4 °F -0.4 °F 7% 30.02 in 10.0 mi West 10.4 mph - N/A   Clear
11:15 PM 64.4 °F 1.4 °F 8% 30.04 in 10.0 mi ESE 9.2 mph 17.3 mph N/A   Clear
11:35 PM 68.0 °F 5.0 °F 8% 30.04 in 10.0 mi WNW 3.5 mph - N/A   Clear
11:55 PM 64.4 °F 15.8 °F 15% 30.04 in 10.0 mi WSW 4.6 mph - N/A   Clear